Weather History for Bellingham, WA

Change the Weather History Date:

Friday, October 12, 2012

  Actual Average Record
Temperature  
Mean Temperature 52 °F 51 °F  
Max Temperature 57 °F 59 °F 68 °F (1976)
Min Temperature 48 °F 42 °F 25 °F (2009)
Degree Days  
Heating Degree Days 12 14  
Month to date heating degree days 156  
Cooling Degree Days 0 0  
Month to date cooling degree days 0  
Year to date cooling degree days 42  
Growing Degree Days 2 (Base 50)    
Moisture  
Dew Point 48 °F    
Average Humidity 85    
Maximum Humidity 94    
Minimum Humidity 72    
Precipitation  
Precipitation 0.09 in 0.11 in 0.88 in (1958)
Month to date precipitation 1.07  
Year to date precipitation 23.20  
Sea Level Pressure  
Sea Level Pressure 29.87 in    
Wind  
Wind Speed 9 mph (SSE)    
Max Wind Speed 15 mph    
Max Gust Speed 23 mph    
Visibility 9 miles    
Events Rain    
T = Trace of Precipitation, MM = Missing Value Source: NWS Daily Summary

Daily Weather History Graph

Daily Weather History Graph

Search for Another Location

Airport:

Trip Planner

Search our weather history database for the weather conditions in past years. The results will help you decide how hot, cold, wet, or windy it might be!

Date:

Astronomy

Oct. 12, 2012 Rise Set
Actual Time 7:26 AM PDT 6:25 PM PDT
Civil Twilight 6:55 AM PDT 6:56 PM PDT
Nautical Twilight 6:18 AM PDT 7:33 PM PDT
Astronomical Twilight 5:41 AM PDT 8:09 PM PDT
Moon 4:02 AM PDT (10/12) 4:48 PM PDT (10/12)
Length of Visible Light 12h 01m
Length of Day
10h 58m
Waning Crescent, 10% of the Moon is Illuminated
Oct 12
Waning Crescent
Oct 15
New
Oct 21
First Quarter
Oct 29
Full
Nov 6
Last Quarter

Hourly Weather History & Observations

Time (PDT) Temp. Dew Point Humidity Pressure Visibility Wind Dir Wind Speed Gust Speed Precip Events Conditions
12:53 AM 48.9 °F 45.0 °F 86% 29.83 in 9.0 mi South 6.9 mph - N/A   Overcast
1:53 AM 48.9 °F 46.0 °F 90% 29.81 in 10.0 mi SSE 10.4 mph - N/A   Overcast
2:22 AM 50.0 °F 46.4 °F 87% 29.79 in 10.0 mi South 8.1 mph - N/A   Overcast
2:51 AM 50.0 °F 46.4 °F 87% 29.80 in 10.0 mi South 6.9 mph 17.3 mph N/A   Overcast
2:52 AM 50.0 °F 46.4 °F 87% 29.80 in 10.0 mi South 8.1 mph - N/A   Overcast
3:53 AM 50.0 °F 46.0 °F 86% 29.84 in 10.0 mi SSE 9.2 mph - N/A   Overcast
4:11 AM 50.0 °F 46.4 °F 87% 29.81 in 10.0 mi SSE 10.4 mph 16.1 mph N/A   Overcast
4:53 AM 51.1 °F 46.0 °F 83% 29.84 in 10.0 mi SE 9.2 mph - N/A   Overcast
5:53 AM 50.0 °F 46.9 °F 89% 29.84 in 7.0 mi Calm Calm - 0.00 in Rain Light Rain
6:10 AM 50.0 °F 46.4 °F 87% 29.83 in 6.0 mi South 9.2 mph - 0.00 in   Overcast
6:25 AM 50.0 °F 46.4 °F 87% 29.84 in 7.0 mi South 10.4 mph 19.6 mph 0.00 in   Overcast
6:53 AM 50.0 °F 46.4 °F 87% 29.84 in 8.0 mi SSE 11.5 mph 16.1 mph N/A   Overcast
7:17 AM 50.0 °F 46.4 °F 87% 29.84 in 10.0 mi South 9.2 mph - 0.01 in Rain Light Rain
7:24 AM 50.0 °F 46.4 °F 87% 29.85 in 9.0 mi South 5.8 mph 16.1 mph 0.01 in Rain Light Rain
7:31 AM 50.0 °F 46.4 °F 87% 29.85 in 10.0 mi South 8.1 mph - 0.01 in Rain Light Rain
7:53 AM 51.1 °F 46.9 °F 86% 29.87 in 10.0 mi SSE 8.1 mph - 0.01 in   Overcast
8:53 AM 51.8 °F 48.2 °F 88% 29.85 in 10.0 mi SSE 12.7 mph 18.4 mph N/A   Overcast
9:53 AM 53.1 °F 48.0 °F 83% 29.88 in 10.0 mi South 9.2 mph - 0.00 in   Overcast
10:53 AM 54.0 °F 48.9 °F 83% 29.89 in 10.0 mi South 12.7 mph 17.3 mph N/A   Overcast
11:53 AM 54.0 °F 50.0 °F 86% 29.90 in 10.0 mi South 13.8 mph 20.7 mph N/A   Overcast
12:14 PM 53.6 °F 50.0 °F 88% 29.88 in 10.0 mi South 11.5 mph 20.7 mph N/A   Overcast
12:50 PM 55.4 °F 48.2 °F 77% 29.88 in 10.0 mi SSE 9.2 mph - N/A   Overcast
12:53 PM 55.9 °F 48.0 °F 75% 29.90 in 10.0 mi South 10.4 mph - N/A   Overcast
1:53 PM 55.9 °F 48.0 °F 75% 29.89 in 10.0 mi SSE 12.7 mph 23.0 mph N/A   Overcast
2:53 PM 57.2 °F 48.2 °F 72% 29.87 in 10.0 mi SSE 12.7 mph 23.0 mph N/A   Overcast
3:53 PM 57.0 °F 48.9 °F 74% 29.89 in 10.0 mi SSE 15.0 mph - N/A   Overcast
4:53 PM 57.0 °F 48.9 °F 74% 29.89 in 10.0 mi SSE 8.1 mph 21.9 mph N/A   Overcast
5:53 PM 57.0 °F 48.9 °F 74% 29.89 in 10.0 mi SSE 10.4 mph 16.1 mph N/A   Overcast
6:53 PM 55.4 °F 50.0 °F 82% 29.88 in 9.0 mi SSE 11.5 mph 17.3 mph N/A Rain Light Rain
7:53 PM 55.0 °F 52.0 °F 89% 29.91 in 10.0 mi SSE 10.4 mph - 0.02 in   Overcast
8:53 PM 55.0 °F 51.1 °F 86% 29.91 in 7.0 mi SSE 12.7 mph 17.3 mph 0.00 in Rain Light Rain
9:53 PM 55.0 °F 52.0 °F 89% 29.93 in 10.0 mi South 5.8 mph - 0.03 in Rain Light Rain
10:53 PM 55.9 °F 52.0 °F 87% 29.94 in 10.0 mi SSE 9.2 mph - 0.01 in Rain Light Rain
11:48 PM 53.6 °F 51.8 °F 94% 29.94 in 5.0 mi SSE 11.5 mph 20.7 mph 0.02 in Rain Light Rain
11:53 PM 54.0 °F 52.0 °F 93% 29.96 in 8.0 mi South 12.7 mph 19.6 mph 0.02 in Rain Light Rain